Hourly Data Report for October 26, 2014

All times are specified in Local Standard Time (LST). Add 1 hour to adjust for Daylight Saving Time where and when it is observed.

ARVIAT A
NUNAVUT

61°05'38.000" N
94°04'18.000" W
10.40 m
2300427
71174
YEK

Download Data

Hourly Data (October 2014)
Hourly Data Report for October 26, 2014
Temp Definition
°C
Dew Point Temp Definition
°C
Rel Hum Definition
%
Wind Dir Definition
10's deg

Wind Spd Definition
km/h
Visibility Definition
km
Stn Press Definition
kPa
Hmdx Definition


Wind Chill Definition


Weather Definition


TIME
00:00 Legend Double Dagger -0.7 -1.0 98 34 30 16.1 100.41   -7 LegendNANA
01:00 Legend Double Dagger -0.9 -1.3 97 33 28 16.1 100.43   -7 LegendNANA
02:00 Legend Double Dagger -1.1 -1.6 96 34 34 16.1 100.46   -8 LegendNANA
03:00 Legend Double Dagger -1.5 -2.1 96 34 32 16.1 100.47   -9 LegendNANA
04:00 Legend Double Dagger -1.9 -2.7 95 33 34 16.1 100.51   -9 LegendNANA
05:00 Legend Double Dagger -2.2 -3.1 94 33 37 16.1 100.56   -10 LegendNANA
06:00 Legend Double Dagger -2.6 -3.4 94 33 34 16.1 100.60   -10 LegendNANA
07:00 Legend Double Dagger -2.8 -3.6 94 33 35 16.1 100.62   -11 Snow
08:00 Legend Double Dagger -2.9 -3.7 94 32 34 16.1 100.65   -11 Snow
09:00 Legend Double Dagger -3.1 -3.9 94 33 37 16.1 100.65   -11 Snow
10:00 Legend Double Dagger -3.0 -3.8 94 33 32 16.1 100.69   -11 Snow
11:00 Legend Double Dagger -2.9 -3.8 93 33 34 16.1 100.72   -11 Snow
12:00 Legend Double Dagger -2.7 -3.7 93 33 35 16.1 100.74   -11 Snow
13:00 Legend Double Dagger -2.7 -3.7 93 33 37 16.1 100.80   -11 Snow
14:00 Legend Double Dagger -2.9 -4.0 92 33 41 16.1 100.86   -11 Snow
15:00 Legend Double Dagger -3.2 -4.6 90 33 37 16.1 100.91   -11 LegendNANA
16:00 Legend Double Dagger -3.7 -4.7 93 34 39 16.1 100.97   -12 LegendNANA
17:00 Legend Double Dagger -4.4 -5.3 94 33 35 16.1 101.01   -13 LegendNANA
18:00 Legend Double Dagger -4.7 -5.7 93 34 37 16.1 101.07   -13 LegendNANA
19:00 Legend Double Dagger -5.0 -6.0 93 35 37 16.1 101.10   -14 LegendNANA
20:00 Legend Double Dagger -4.8 -6.1 91 35 37 16.1 101.12   -14 LegendNANA
21:00 Legend Double Dagger -5.4 -6.5 92 34 37 16.1 101.17   -14 LegendNANA
22:00 Legend Double Dagger -5.0 -6.4 90 34 39 16.1 101.15   -14 LegendNANA
23:00 Legend Double Dagger -5.6 -6.6 93 34 34 16.1 101.15   -14 LegendNANA

Notes on Data Quality.

Legend

  • E = Estimated
  • M = Missing
  • NA = Not Available
  • ‡ = Partner data that is not subject to review by the National Climate Archives
Date modified: